Orbital Elements at Epoch 2455947.5 (2012-Jan-21.0) TDB
Reference: JPL 139 (heliocentric ecliptic J2000)
Element | Value | Uncertainty (1-sigma) | Units |
e | .6920214030579277 | 1.0041e-08 | |
a | 2.931505661877386 | 1.7288e-08 | au |
q | .9028410006727384 | 3.3518e-08 | au |
i | 20.61912261051878 | 3.4831e-06 | deg |
node | 63.60831886306269 | 1.7942e-06 | deg |
peri | 152.1306592817882 | 5.215e-06 | deg |
M | 198.3460710166581 | 2.7343e-07 | deg |
tp | 2456770.724518275230 (2014-Apr-23.22451828) | 7.545e-06 | TDB |
period | 1833.304197695203 5.02 | 1.6218e-05 4.44e-08 | d yr |
n | .1963667570567861 | 1.7371e-09 | deg/d |
Q | 4.960170323082034 | 2.9252e-08 | au |
|
| | Orbit Determination Parameters
Additional Information
|